User: anonymous
Location: Springfield
(37.2150°N, 93.2980°W)
Time: 10:10:26
(UTC-05:00)
Language:

Iridium 62 - Orbit

View from above orbital plane
View from above orbital plane
View from above satellite
View from above satellite

Ground track
Ground track

The orbit data is extracted from the following two-line orbital elements,

1 25285U 98021A   14206.38343354  .00000234  00000-0  76558-4 0  8586
2 25285 086.3987 306.0629 0002265 112.4024 247.7412 14.34214509853400
Epoch (UTC): 25 July 2014 09:12:08
Eccentricity: 0.0002265
inclination: 86.3987°
perigee height: 776 km
apogee height: 779 km
right ascension of ascending node: 306.0629°
argument of perigee: 112.4024°
revolutions per day: 14.34214509
mean anomaly at epoch: 247.7412°
orbit number at epoch: 85340

The dashed part of the orbit path shows where the satellite is in the earth's shadow,  

DLR